Regional Weather Roundup
Issued by NWS

Home | Current Version | Previous Version | Graphics & Text | Print | Product List | Glossary On
Versions: 1 2 3 4 5 6 7 8 9 10 11 12 13 14 15 16 17 18 19 20 21 22 23 24 25 26 27 28 29 30 31 32 33 34 35 36 37 38 39 40 41 42 43 44 45 46 47 48 49 50
000
ASUS43 KFSD 221302
RWRSD

WEATHER ROUNDUP FOR SOUTH DAKOTA
NATIONAL WEATHER SERVICE SIOUX FALLS SD
800 AM CDT TUE APR 22 2014

NOTE: "FAIR" INDICATES FEW OR NO CLOUDS BELOW 12,000 FEET WITH NO
SIGNIFICANT WEATHER AND/OR OBSTRUCTIONS TO VISIBILITY.


SDZ001>005-009-010-012>017-221400-
NORTHWEST AND NORTH CENTRAL SOUTH DAKOTA

CITY           SKY/WX    TMP DP  RH WIND       PRES   REMARKS
FAITH            N/A     46  30  53 SE21G30   29.93F
MOBRIDGE       SUNNY     42  32  67 SE7       30.04F
$$

SDZ012>016-024>037-041>051-057-063-072>074-221400-
SOUTHWEST AND SOUTH CENTRAL SOUTH DAKOTA

CITY           SKY/WX    TMP DP  RH WIND       PRES   REMARKS
RAPID CTY ARPT MOSUNNY   38  29  70 SE3       29.90F
PIERRE         SUNNY     42  33  70 E10       30.05S
CUSTER         PTCLDY    37  25  61 NW5       29.95F
ELLSWORTH AFB  PTSUNNY   43  29  58 SE9       29.89F
PHILIP         MOSUNNY   44  32  62 E10       29.97F
PINE RIDGE     MOSUNNY   54  28  36 S30G40    29.92S
WINNER         FAIR      50  31  48 S12       30.07R
$$

SDZ004>011-016>023-039-040-221400-
NORTHEAST SOUTH DAKOTA

CITY           SKY/WX    TMP DP  RH WIND       PRES   REMARKS
ABERDEEN       SUNNY     34  30  85 SE5       30.13S WCI  30
WATERTOWN      SUNNY     36  32  85 CALM      30.13S
SISSETON         N/A     41  36  82 CALM      30.13S
$$

SDZ017-020-022-023-036>040-048>070-221400-
SOUTHEAST SOUTH DAKOTA

CITY           SKY/WX    TMP DP  RH WIND       PRES   REMARKS
SIOUX FALLS    MOSUNNY   38  32  79 CALM      30.16R
HURON          SUNNY     37  30  75 SE5       30.13S
CHAMBERLAIN      N/A     42  34  73 SE10      30.09S
MITCHELL       SUNNY     38  33  82 SE5       30.15R
YANKTON        SUNNY     37  32  81 CALM      30.17R
$$

ABBREVIATIONS USED IN REMARKS
   TC - TEMPERATURE IN CELSIUS
  WCI - WIND CHILL INDEX
   HX - HEAT INDEX
  VSB - VISIBILITY




USA.gov is the U.S. government's official web portal to all federal, state and local government web resources and services.